Starlink 31000

operational
NORAD ID: 58488 Int'l Des: 2023-186 Owner: SPXS Country: US Constellation: starlink
LEOCIRCULAR

关于 Starlink 31000

正在加载描述...

实时位置

正在加载3D地球...

即将过境

高度历史

Altitude vs Time

uPlot chart will show altitude changes over time

两行轨道根数

1 58488U 23186R 25258.79516927 .00000474 00000-0 50180-4 0 9994
2 58488 43.0034 297.7068 0001540 272.1701 87.8965 15.02534326 99538
Epoch: Sep 15, 2025 • Age: 22 hours

当前状态

高度 558.3 km
速度 7.59 km/s
星下点 13.11°N, 48.5°E
发射日期 Dec 3, 2023
运行时间 1.7 years
类型 internet

技术详情

分类 Payload
质量 730.00 kg
干质量 700.00 kg
总质量 730.00 kg
长度 0.30 m
直径 4.10 m
跨度 29.00 m
形状 Box + pan
制造商 SPXS
平台类型 Starlink V2M
阶段状态 In Orbit
所有者/国家 SPXS/US

大型星座

Loading constellations...